Volver al catálogo

STARLINK-35480

ActivoComunicacionesVLEO
NORAD 66242·PAYLOAD·🇺🇸 United States

Lanzado Oct 29, 2025 desde Cape Canaveral Space Force Station

Loading…

Próximos Pases (próximas 24 horas)

TLE

ActualizadoSource: CelesTrak SupGP

Época: Sep 14, 2026, 21:02 UTC

1 66242C 25245J   26257.87687500 -.00052992  00000+0 -15657-2 0  2572
2 66242  53.1576 123.8168 0001279  90.0816 160.3137 15.34416185    11

Sigue STARLINK-35480 en tiempo real con AllMySat

Download on the App Store